Home   Weather   Grand Prairie   Past weeks
Flag for USA

Past Weather in Grand Prairie, Texas, USA — Yesterday and Last 2 Weeks

Now
81 °F

Clear.


Feels Like: 83 °F
Forecast: 87 / 73 °F
Wind: 8 mph from Southeast

Location: Grand Prairie Municipal Airport

Current Time: May 25, 2019 at 10:23:54 pm

Latest Report: May 25, 2019 at 9:55 pm


Visibility: 10 mi

Pressure: 29.99 "Hg

Humidity: 56%

Dew Point: 64 °F

Location of Grand PrairieLocation

Past Weather in Grand Prairie — Graph

°F

Grand Prairie Temperature Yesterday

Maximum temperature yesterday: 88 °F (at 1:50 pm)
Minimum temperature yesterday: 75 °F (at 6:55 am)
Average temperature yesterday: 80 °F

High & Low Weather Summary for the Past Weeks

 TemperatureHumidityPressure
High90 °F (May 23, 3:50 pm)100% (May 10, 9:15 pm)30.07 "Hg (May 10, 9:15 pm)
Low55 °F (May 11, 8:50 am)17% (May 21, 6:50 pm)29.52 "Hg (May 21, 2:35 am)
Average73 °F70%29.89 "Hg
* Reported May 10 9:15 pm — May 25 9:15 pm, Grand Prairie. Weather by CustomWeather, © 2019

Note: Actual official high and low records may vary slightly from our data, if they occured in-between our weather recording intervals... More about our weather records

Advertising

Grand Prairie Weather History for the Previous 24 Hours

Scroll right to see more
 ConditionsComfort  
Time TempWeatherWind HumidityBarometerVisibility
9:15 pm
Sat, May 25
82 °FClear.9 mph55%29.97 "Hg10 mi
8:35 pm83 °FClear.9 mph54%29.96 "Hg10 mi
8:15 pm83 °FSunny.8 mph54%29.95 "Hg10 mi
7:55 pm84 °FSunny.13 mph53%29.94 "Hg10 mi
7:35 pm85 °FSunny.10 mph54%29.95 "Hg10 mi
6:50 pm84 °FSunny.13 mph55%29.95 "Hg10 mi
5:50 pm88 °FSunny.12 mph49%29.98 "Hg10 mi
4:50 pm88 °FSunny.12 mph49%29.98 "Hg10 mi
3:50 pm88 °FSunny.10 mph49%30.00 "Hg10 mi
2:50 pm90 °FSunny.10 mph46%30.02 "Hg10 mi
1:50 pm86 °FSunny.13 mph52%30.05 "Hg10 mi
12:50 pm84 °FSunny.10 mph55%30.06 "Hg10 mi
11:50 am82 °FSunny.8 mph58%30.07 "Hg10 mi
10:50 am82 °FSunny.10 mph58%30.07 "Hg10 mi
9:50 am79 °FScattered clouds.10 mph70%30.07 "Hg10 mi
8:50 am75 °FScattered clouds.9 mph78%30.07 "Hg10 mi
8:35 am74 °FScattered clouds.10 mph78%30.06 "Hg10 mi
8:15 am74 °FScattered clouds.10 mph80%30.06 "Hg10 mi
7:55 am73 °FScattered clouds.8 mph82%30.05 "Hg10 mi
7:35 am73 °FSunny.7 mph84%30.05 "Hg10 mi
7:15 am72 °FSunny.6 mph90%30.04 "Hg10 mi
6:55 am72 °FSunny.5 mph86%30.03 "Hg10 mi
6:35 am72 °FSunny.10 mph84%30.03 "Hg10 mi
6:15 am72 °FPassing clouds.9 mph83%30.02 "Hg10 mi
5:55 am72 °FClear.13 mph84%30.03 "Hg10 mi
5:35 am72 °FClear.9 mph84%30.02 "Hg10 mi
5:15 am72 °FPassing clouds.8 mph83%30.03 "Hg10 mi
4:55 am73 °FPassing clouds.7 mph83%30.03 "Hg10 mi
4:35 am73 °FPassing clouds.8 mph83%30.03 "Hg10 mi
4:15 am73 °FPassing clouds.7 mph83%30.03 "Hg10 mi
3:35 am74 °FClear.7 mph81%30.03 "Hg10 mi
3:15 am74 °FClear.8 mph81%30.02 "Hg10 mi
2:55 am74 °FClear.5 mph80%30.02 "Hg10 mi
2:35 am75 °FClear.5 mph79%30.02 "Hg10 mi
2:15 am76 °FClear.6 mph76%30.01 "Hg10 mi
1:55 am76 °FClear.9 mph76%30.00 "Hg10 mi
1:35 am76 °FClear.6 mph74%30.00 "Hg10 mi
1:15 am76 °FClear.7 mph73%30.00 "Hg10 mi
12:55 am76 °FPassing clouds.5 mph73%30.01 "Hg10 mi
12:35 am76 °FClear.6 mph71%30.01 "Hg10 mi
12:15 am77 °FClear.5 mph69%30.01 "Hg10 mi
11:55 pm
Fri, May 24
78 °FClear.5 mph67%30.01 "Hg10 mi
11:35 pm78 °FClear.6 mph66%30.01 "Hg10 mi
11:15 pm79 °FClear.6 mph65%30.00 "Hg10 mi
10:55 pm79 °FClear.6 mph65%29.98 "Hg10 mi
10:35 pm79 °FClear.8 mph63%29.97 "Hg10 mi
10:15 pm80 °FClear.6 mph62%29.97 "Hg10 mi
Weather by CustomWeather, © 2019

See weather overview